GFSGBSN_925_spd_363.txt.gz
Wind_Speed
14 14 14 14 14 14 13 13 12 11 10 11 10 10 11 11 12 12 11 12 15 17 19 25 17 8 16 15 6 17 29 32 41 39 35 6 11 6 8 8 26 25 16 18 17 18 16
15 15 15 15 14 14 13 13 12 10 10 9 9 8 7 7 10 9 10 11 16 18 20 13 28 21 10 26 12 23 24 36 43 42 31 18 3 5 8 5 11 8 19 10 9 11 9
16 15 15 15 15 14 14 13 12 11 11 10 8 7 5 5 9 10 11 9 11 11 10 16 18 16 28 9 22 26 31 34 39 43 32 32 6 8 3 22 13 8 15 9 8 2 5
16 15 15 15 15 14 14 13 12 12 11 11 9 7 6 7 8 11 13 11 9 9 12 9 6 19 8 16 11 22 25 34 45 36 43 30 8 12 6 4 6 6 6 5 3 7 4
18 15 14 14 14 14 14 13 11 10 10 10 9 8 9 9 9 12 12 17 9 8 11 11 9 9 5 16 27 12 17 8 22 39 40 38 28 7 8 5 5 9 4 6 8 6 2
18 17 14 13 12 13 13 12 11 9 8 8 8 8 8 9 10 14 5 11 31 10 6 4 13 6 9 6 7 14 24 19 13 10 15 17 10 12 11 8 4 1 2 4 4 4 7
17 17 15 13 11 10 10 11 11 9 6 6 6 5 5 5 8 17 6 2 7 8 16 7 2 7 2 4 16 23 5 19 12 9 7 8 9 13 7 8 8 5 3 2 4 4 5
16 16 15 14 12 8 8 9 10 9 7 4 3 4 2 2 6 14 17 7 1 6 5 7 6 4 5 3 6 15 15 7 8 9 3 7 14 4 4 7 8 7 6 6 3 6 6
16 15 15 15 12 9 6 5 8 9 7 5 2 3 4 2 3 10 15 9 8 5 5 3 2 2 2 11 4 8 6 5 7 12 12 8 2 5 4 6 6 3 6 5 1 2 5
16 16 16 15 14 10 6 3 4 7 7 6 3 3 3 4 2 4 4 7 8 2 5 7 6 5 4 3 5 10 8 4 4 5 5 7 3 5 7 5 2 4 3 3 1 1 2
15 16 16 16 15 12 7 3 1 2 6 6 6 5 6 4 4 4 4 7 9 1 4 1 3 3 4 5 1 9 17 8 5 3 3 1 1 4 6 3 3 3 3 1 1 3 2
15 16 17 17 16 14 8 5 2 1 2 5 5 6 5 5 5 3 4 7 2 6 1 1 2 1 4 5 4 2 8 10 2 6 7 3 0 2 2 2 4 5 4 5 4 3 2
14 15 16 17 17 17 10 6 4 1 4 3 4 4 3 3 2 1 3 3 5 6 1 1 2 3 2 2 3 4 4 7 4 4 5 3 2 1 2 1 5 8 5 3 4 4 5
13 14 15 17 17 17 13 8 5 3 6 4 5 4 3 2 2 2 2 5 6 3 3 2 2 2 1 2 2 3 3 4 4 3 3 3 4 2 2 2 2 3 3 4 3 3 6
14 14 15 16 17 17 15 8 6 5 6 6 6 7 4 3 1 1 5 5 6 2 3 4 2 1 1 0 3 4 3 2 0 2 3 3 3 0 1 2 5 1 4 3 2 1 2
16 15 15 15 17 17 17 9 5 4 5 6 4 3 4 3 2 2 5 4 3 1 2 1 2 2 4 1 1 3 1 1 3 1 2 2 3 2 1 3 3 1 5 2 3 3 5
18 16 16 16 16 17 17 11 5 3 4 3 2 4 2 2 2 5 3 5 3 1 2 2 2 1 2 1 2 1 2 1 2 3 2 2 2 1 3 4 5 1 1 3 3 4 4
19 18 17 16 17 17 17 15 6 3 4 3 3 3 1 1 4 2 3 4 2 2 3 2 3 2 2 2 1 3 5 1 4 3 2 1 3 4 6 2 4 3 4 4 3 3 3
18 19 18 17 16 17 16 16 8 2 4 2 3 2 2 1 3 2 3 1 2 2 1 2 2 1 1 4 1 2 3 1 5 3 5 4 0 4 2 2 3 3 4 4 3 3 5
16 18 19 18 16 17 16 15 11 3 2 2 3 2 4 4 0 6 4 3 2 2 1 2 3 2 2 2 1 3 3 3 3 2 6 3 3 5 6 6 3 4 5 6 6 3 3
15 17 18 19 18 16 17 15 12 7 3 3 3 3 3 2 3 4 4 5 4 4 1 2 0 4 5 3 2 4 3 3 1 6 2 3 3 4 7 12 7 11 14 8 9 7 6
14 16 17 19 19 18 17 16 13 9 3 1 4 3 3 2 2 6 4 6 8 3 6 3 3 4 5 5 7 7 6 4 6 1 5 1 2 2 5 4 4 7 11 10 12 4 10
12 14 16 18 19 19 17 16 14 11 2 1 1 2 4 2 3 5 5 6 9 7 4 3 7 3 4 5 2 1 2 3 6 9 7 5 2 2 5 5 7 6 7 6 3 5 6
10 13 14 16 18 19 18 15 13 12 8 2 2 2 4 3 3 5 3 6 8 8 7 2 4 5 2 3 3 3 2 1 6 4 5 5 3 3 4 6 3 4 2 4 8 8 10
8 11 13 14 16 17 18 17 12 10 6 6 1 1 3 1 2 2 4 4 6 4 3 4 1 1 3 5 3 3 3 2 4 6 7 3 4 1 0 2 9 5 3 5 5 8 7
7 9 11 12 14 15 16 17 14 9 6 3 8 2 2 4 5 0 4 4 4 3 2 2 2 2 6 3 3 3 3 2 3 3 3 5 3 3 1 1 5 4 2 5 4 4 7
8 8 10 10 12 14 14 15 15 8 8 4 6 5 1 3 3 2 3 5 6 4 3 2 3 2 3 3 2 3 3 3 3 4 5 3 2 5 2 4 9 7 5 4 2 6 7
10 9 9 10 9 12 13 13 14 10 9 2 3 7 2 2 4 1 2 3 2 3 5 4 4 2 3 2 3 3 3 4 1 4 6 7 6 4 3 2 9 8 5 8 6 2 5
11 10 9 9 9 9 11 12 13 11 8 2 0 4 3 1 3 2 2 1 3 3 5 3 4 5 5 3 0 3 1 0 3 3 2 3 7 5 11 8 5 11 8 12 5 5 6

GFSGBSN_925_spd_369.txt.gz
Wind_Speed
14 15 14 14 14 14 13 12 13 12 13 14 13 13 14 14 13 13 15 18 19 28 29 13 11 8 18 19 6 26 34 23 16 16 20 14 20 9 12 15 24 19 12 11 14 14 11
15 15 15 14 14 13 12 11 11 11 11 11 10 11 13 13 13 11 12 15 14 15 20 26 19 17 14 27 11 22 29 29 30 25 22 10 13 21 14 5 8 12 20 14 7 9 6
15 15 14 14 13 13 12 12 11 10 10 9 9 11 13 13 12 8 9 13 16 10 24 24 10 25 32 8 13 13 27 32 34 26 15 10 7 12 13 20 17 18 15 9 4 2 4
14 14 13 13 13 12 12 11 11 10 9 9 11 13 14 14 12 11 9 9 13 15 12 9 9 24 9 8 25 27 12 25 29 28 28 29 28 17 6 19 5 4 3 2 4 2 2
14 12 12 12 12 12 11 10 10 9 9 10 12 13 13 13 12 20 18 9 5 9 18 11 11 12 6 9 17 20 28 7 19 26 27 22 19 10 3 6 5 7 3 4 2 3 2
14 13 11 10 11 11 11 10 9 9 10 10 11 12 14 12 6 12 10 15 32 8 5 6 20 6 6 8 7 8 17 26 13 6 9 13 8 10 9 3 4 4 3 2 3 4 4
15 14 12 10 8 9 10 10 9 8 8 8 9 10 13 16 3 3 2 1 6 7 21 7 2 7 2 1 21 22 10 12 11 13 8 14 14 14 11 11 7 6 2 3 3 3 3
15 14 13 11 8 7 8 9 9 7 6 6 6 7 10 14 19 10 9 8 2 6 7 11 6 5 6 4 5 21 25 8 10 7 5 10 13 3 5 6 5 4 3 2 4 2 3
16 15 15 13 9 7 5 6 8 7 6 4 3 3 5 7 8 22 23 9 7 4 5 4 3 4 3 10 6 10 6 3 11 18 15 11 4 5 2 3 2 2 5 3 4 3 1
16 16 16 15 12 8 5 3 5 7 6 5 3 1 1 3 4 6 6 8 3 2 4 8 6 5 5 3 6 5 4 3 4 4 5 8 2 3 3 4 3 4 5 4 2 2 3
15 16 17 16 15 9 6 4 2 5 7 6 6 5 3 2 5 4 2 5 2 2 4 4 3 2 4 6 2 8 13 7 6 3 1 2 1 3 5 2 3 3 3 1 2 1 3
15 16 17 17 16 11 8 5 2 2 5 6 6 6 6 5 6 4 3 2 2 4 2 1 2 2 3 5 3 2 6 9 3 5 10 3 0 1 1 1 2 4 1 2 2 0 1
15 16 16 17 17 14 9 6 3 2 3 5 6 7 6 5 3 2 2 2 4 5 2 0 1 2 3 3 4 5 4 6 3 1 5 1 1 1 1 2 1 5 2 2 2 2 3
15 15 16 17 18 17 10 7 4 5 3 4 5 5 9 8 5 3 2 4 6 2 3 1 2 2 3 1 2 3 2 3 4 3 3 3 0 0 0 2 2 5 5 3 5 4 6
16 15 15 16 17 18 13 8 5 5 5 4 6 6 4 6 4 3 4 4 6 5 4 5 2 2 1 1 3 3 3 1 0 2 2 2 1 1 1 2 1 1 3 1 1 0 4
18 17 16 15 17 17 15 8 5 3 4 4 3 3 4 5 4 3 4 3 2 2 2 2 4 2 3 1 1 1 2 2 3 1 1 3 2 1 3 2 7 1 6 1 2 5 5
18 18 18 16 15 16 16 10 5 2 3 3 2 3 5 4 3 4 3 3 3 2 1 2 4 3 2 3 2 2 3 1 3 3 2 3 1 2 2 5 5 3 3 3 2 1 3
18 19 18 17 16 16 16 13 7 2 3 2 3 2 6 3 3 1 2 3 2 3 2 1 3 2 4 5 3 3 3 1 4 5 2 1 2 3 1 1 2 2 3 4 2 2 2
17 18 19 18 16 15 15 14 10 3 2 2 2 0 5 3 3 0 2 1 1 2 2 3 2 1 1 4 2 2 3 1 3 3 4 5 1 4 3 2 0 4 5 4 5 2 6
16 17 18 19 18 15 14 14 11 4 3 2 2 2 3 4 1 5 4 3 2 2 2 3 3 2 2 2 1 4 4 3 2 2 6 3 2 4 4 2 2 4 6 10 6 4 4
14 15 17 18 19 16 14 15 13 5 4 2 3 1 1 1 2 3 3 4 3 3 0 1 1 3 4 3 2 3 2 2 1 7 2 2 3 4 10 13 10 11 13 13 12 5 7
12 14 15 17 19 18 15 13 12 6 4 3 3 3 2 1 2 4 1 5 7 3 5 3 3 5 5 5 5 6 6 5 4 3 4 1 2 1 5 3 3 12 14 15 17 9 13
8 11 13 15 17 18 17 12 12 9 1 2 3 3 2 1 2 3 3 5 6 5 4 1 4 4 4 5 3 1 2 3 6 8 8 4 2 1 4 3 9 7 6 14 7 9 6
6 9 11 13 14 17 18 14 10 9 6 2 2 4 3 2 2 4 2 5 6 4 3 2 3 4 2 7 6 6 6 6 7 3 3 6 3 1 4 8 3 1 3 5 7 7 17
7 8 9 12 13 14 16 16 9 9 6 3 3 2 3 2 2 3 4 3 3 2 2 3 2 2 7 3 2 1 1 0 1 1 3 0 3 1 2 2 9 3 4 7 6 6 12
6 8 9 9 11 13 14 15 14 8 5 2 4 3 2 3 4 2 3 3 3 3 2 2 2 3 4 2 2 2 4 2 3 3 3 3 2 2 2 2 5 0 4 5 3 5 9
9 8 8 9 9 11 12 13 14 9 5 2 2 2 2 2 2 4 3 4 5 3 3 2 4 2 2 2 2 4 3 1 4 6 6 4 3 7 4 5 10 10 8 5 2 3 8
12 10 8 7 8 9 11 12 12 11 7 1 1 2 1 2 2 6 5 4 3 3 4 4 3 1 2 3 3 3 3 3 2 3 6 8 8 5 5 4 9 10 7 7 5 2 7
14 12 10 7 8 8 9 10 11 11 8 2 2 1 3 2 2 5 7 6 3 5 5 4 1 4 5 3 2 2 3 2 3 3 1 4 6 5 11 8 1 19 5 14 2 4 6

GFSGBSN_925_spd_375.txt.gz
Wind_Speed
13 12 12 11 10 10 10 10 11 10 8 9 9 9 9 8 12 11 12 17 24 12 9 14 9 8 15 17 14 20 21 16 6 10 10 11 13 11 13 19 19 18 15 14 11 9 9
13 12 11 10 10 10 10 10 10 8 8 8 8 8 8 7 9 10 12 13 19 21 23 24 17 9 14 27 12 16 19 17 20 15 10 15 18 17 12 10 9 13 15 13 10 8 5
12 12 11 11 10 9 9 8 7 7 7 8 8 7 7 6 5 7 11 8 8 9 18 14 12 17 32 13 12 12 17 22 24 16 17 8 2 2 16 19 16 15 15 10 6 5 3
12 11 11 10 9 9 8 7 6 6 6 8 8 8 6 5 4 4 5 11 7 8 9 7 11 23 12 11 13 13 16 18 18 20 19 21 22 15 10 17 10 6 6 5 6 1 5
11 10 10 9 9 8 7 6 6 6 7 7 8 8 7 14 13 6 5 5 5 6 12 8 6 10 9 6 16 10 9 12 14 15 12 15 16 13 11 8 11 5 7 6 8 1 2
11 9 8 8 8 7 7 6 6 6 6 6 7 9 6 6 7 4 10 21 22 8 3 2 10 7 10 10 10 8 7 3 2 0 3 4 6 11 13 9 8 10 10 4 6 5 5
11 9 7 6 7 7 7 6 5 5 5 4 5 9 11 3 8 10 8 7 6 5 23 20 14 15 9 4 13 16 4 1 6 6 13 16 13 14 14 13 8 6 7 4 7 6 8
12 11 8 6 5 5 6 6 4 3 3 2 2 4 7 13 7 6 3 3 5 5 14 14 15 16 11 4 6 16 11 6 5 8 8 13 15 10 8 9 7 9 11 10 4 1 5
13 13 11 7 4 3 4 5 4 2 1 2 1 3 4 5 7 13 14 9 4 5 2 7 7 9 6 12 11 13 10 3 10 14 16 18 7 7 7 8 9 5 12 10 7 11 8
14 14 13 9 5 3 2 3 4 3 1 1 2 3 4 4 1 1 6 5 4 3 4 5 4 5 5 2 5 9 7 4 3 6 7 8 4 3 5 5 11 4 12 7 5 8 6
14 14 14 12 7 4 2 1 2 4 3 2 2 2 2 5 3 3 4 6 4 3 3 3 5 3 6 3 2 7 9 8 9 4 5 5 1 6 7 6 8 6 9 6 6 7 9
13 15 15 15 9 6 3 1 2 3 3 3 2 1 1 1 3 3 6 6 4 4 3 4 2 2 4 5 4 2 3 3 3 3 9 7 2 3 7 6 5 11 11 12 6 7 5
12 13 14 16 13 8 6 2 2 2 3 2 4 3 2 2 3 6 6 5 2 2 2 6 4 2 1 2 3 1 2 5 5 4 3 5 4 3 5 10 5 11 15 1 4 5 6
11 12 13 15 15 10 7 4 2 4 3 2 3 4 7 5 3 4 4 5 3 3 1 3 4 4 2 0 3 1 2 1 5 8 6 8 3 3 6 5 6 8 8 4 5 6 9
11 11 12 13 15 12 8 6 3 3 2 3 3 1 1 5 3 2 5 1 3 2 4 5 5 4 4 2 4 3 2 3 5 9 7 6 4 5 3 3 5 5 4 4 5 8 5
13 13 11 11 13 13 10 6 3 2 2 3 1 3 1 3 2 4 5 1 1 4 2 4 5 2 2 5 3 3 1 3 2 4 5 4 5 2 4 3 3 5 4 3 2 5 6
15 13 13 11 12 13 12 7 3 1 2 2 2 3 2 1 2 5 3 1 2 3 1 3 3 3 3 2 5 2 2 4 1 2 5 5 2 5 2 6 3 4 3 2 4 3 4
17 17 14 13 11 12 12 11 4 1 2 1 2 2 2 2 4 2 3 1 2 5 2 2 4 4 4 2 3 2 2 4 2 2 5 6 5 5 5 5 4 5 6 4 4 2 4
16 17 17 15 11 11 11 11 7 0 2 3 2 2 1 2 2 3 3 4 1 4 4 3 3 3 0 3 3 3 1 3 2 1 5 4 2 6 7 4 4 5 4 7 5 2 6
14 16 18 16 14 11 11 12 9 1 2 2 3 1 3 5 3 4 5 5 6 2 2 3 2 3 4 5 5 2 3 2 2 1 4 2 5 7 9 14 8 9 8 8 8 5 6
11 13 15 17 17 13 10 11 11 4 2 3 2 2 2 2 4 5 3 1 7 5 5 6 4 10 6 5 4 7 3 4 4 6 3 3 7 10 14 18 17 16 15 14 15 13 7
10 13 14 15 16 16 12 9 11 6 1 3 2 2 3 1 1 6 4 7 10 6 5 6 8 1 8 9 6 5 4 5 5 7 6 4 5 10 14 8 4 12 14 15 17 18 21
7 10 12 14 15 17 17 10 9 9 0 3 1 1 4 4 4 5 7 7 5 4 5 6 5 6 7 5 4 3 4 2 4 6 8 5 5 7 6 2 10 14 13 18 13 11 12
7 7 10 12 14 15 16 15 10 9 4 4 3 5 4 4 6 6 3 6 6 8 7 3 4 7 4 3 3 3 5 6 9 10 8 7 7 5 7 11 3 1 2 4 13 15 16
7 7 9 10 12 13 14 15 10 9 6 3 3 4 3 5 6 7 8 7 4 3 6 5 2 5 5 3 5 5 5 5 8 10 8 8 7 4 4 7 15 16 7 4 7 8 11
10 8 8 9 10 12 13 13 14 7 6 1 2 2 4 4 3 7 5 8 8 7 5 5 1 3 3 4 2 3 4 5 5 5 5 6 9 6 4 5 4 4 5 3 2 8 5
12 11 9 9 8 9 11 12 12 11 7 2 2 1 4 3 6 3 3 3 5 5 4 4 5 5 5 5 3 5 6 2 5 7 7 5 6 12 10 7 9 11 8 5 5 3 1
14 13 12 10 9 8 9 10 10 10 9 3 1 1 3 3 5 4 5 7 5 5 6 5 5 4 6 5 4 5 5 5 5 9 6 9 6 6 7 6 9 7 9 6 5 5 8
17 15 14 13 10 8 8 9 10 8 8 4 4 2 2 5 5 4 8 10 8 3 4 7 2 2 5 4 5 3 4 3 7 6 9 6 9 4 9 7 8 15 14 12 13 14 15

GFSGBSN_925_spd_378.txt.gz
Wind_Speed
13 12 11 11 11 10 9 9 8 7 7 7 8 10 10 11 11 11 16 19 14 14 11 13 7 3 13 15 13 17 19 17 4 11 12 6 11 10 14 18 19 17 15 14 12 11 8
12 12 11 10 10 9 9 8 7 7 7 6 7 9 9 8 9 8 10 12 13 14 20 25 29 9 15 22 12 15 18 16 21 14 17 17 17 13 10 8 6 13 14 12 10 10 3
12 11 10 10 9 9 8 7 6 6 6 7 8 9 8 6 4 7 12 7 8 13 14 14 6 22 27 12 10 13 14 19 19 17 14 6 3 4 13 16 16 16 14 12 8 3 5
11 11 10 9 9 8 7 5 4 5 6 7 9 9 8 5 3 3 7 11 9 13 5 6 15 18 9 10 10 10 14 16 16 13 16 17 17 12 7 15 11 12 11 6 7 3 5
11 10 9 9 8 7 6 5 4 5 6 7 10 9 7 12 13 6 5 4 5 8 6 6 3 9 7 7 12 9 7 8 8 6 7 8 10 11 11 9 8 7 7 6 7 3 0
10 9 9 8 8 7 6 5 5 5 4 6 9 10 0 2 4 6 6 4 11 13 7 6 4 11 7 7 8 5 3 2 4 3 10 8 3 11 12 10 7 9 9 8 7 5 3
11 9 8 7 7 7 6 5 4 3 2 4 6 9 9 5 9 12 17 13 4 8 22 18 13 14 6 13 11 11 3 3 3 4 10 14 12 12 13 10 6 9 8 9 7 5 5
12 10 7 6 5 6 6 4 4 2 0 2 5 7 9 8 7 5 8 5 8 6 9 12 15 13 7 2 7 15 18 4 1 6 6 11 13 8 4 10 4 8 11 9 2 2 2
13 12 9 6 4 4 4 4 3 2 1 3 4 7 8 7 7 11 13 10 9 9 2 5 6 7 4 10 8 11 13 5 6 9 12 15 5 3 4 10 13 10 9 7 6 12 8
14 14 12 8 5 4 3 3 4 3 3 3 5 6 8 9 5 4 6 10 9 7 4 5 1 4 3 1 4 7 9 3 3 6 5 6 2 5 7 8 10 2 10 7 7 9 6
14 15 15 11 7 5 3 2 3 4 3 4 5 6 6 10 9 4 8 9 8 3 3 2 5 1 4 4 1 4 8 4 9 6 3 3 3 7 8 6 7 5 7 7 6 8 9
13 14 16 14 9 7 4 2 1 4 4 3 5 4 3 3 2 5 8 9 5 3 3 4 3 3 4 5 4 1 1 2 1 2 7 6 2 3 6 7 6 11 13 16 8 6 6
12 13 15 16 12 9 6 3 1 2 4 3 3 4 4 5 4 9 9 7 2 3 0 5 4 2 2 2 3 3 4 7 7 6 1 8 5 4 6 10 3 13 16 3 5 5 2
12 12 13 14 14 10 7 4 1 0 3 2 3 3 2 2 5 7 5 3 6 4 2 5 3 3 3 3 5 1 3 3 10 11 10 7 3 6 7 5 5 8 7 3 4 6 8
12 13 12 13 14 12 9 6 2 1 2 1 1 2 2 5 4 4 4 3 3 10 5 2 4 4 5 3 4 2 2 5 7 10 7 7 3 5 5 3 5 6 4 4 4 8 5
15 14 13 13 14 13 11 7 4 2 2 2 5 4 2 4 3 2 5 1 1 3 5 4 5 0 6 6 3 1 2 3 3 6 6 4 4 1 3 3 3 2 3 2 2 5 5
18 16 14 13 13 14 13 9 5 2 2 2 4 3 1 2 1 4 4 3 1 1 4 3 3 4 3 3 3 4 3 4 2 3 5 6 2 3 3 6 4 3 3 2 2 3 3
18 19 18 16 14 14 15 14 7 3 2 4 5 2 0 1 4 4 4 3 4 3 2 2 3 4 4 5 4 2 2 5 4 4 4 4 4 5 6 6 3 2 5 3 2 2 5
16 18 19 18 16 14 14 15 11 6 5 8 3 3 1 1 1 2 2 2 3 3 4 3 3 1 3 3 3 2 3 3 3 2 4 5 2 6 6 3 4 3 2 4 6 2 6
15 16 18 19 18 16 13 13 13 7 5 7 4 1 3 4 4 5 5 7 6 1 5 3 4 1 4 6 6 3 3 4 2 2 3 2 3 6 6 12 13 12 12 9 7 4 4
11 14 17 19 20 18 14 13 13 8 3 5 4 2 2 2 4 6 4 6 7 5 5 4 4 9 7 5 7 8 6 7 5 6 2 2 5 9 13 17 18 16 17 15 14 12 6
9 12 14 17 18 19 18 14 14 12 3 3 4 4 2 4 1 5 3 6 9 7 5 6 8 8 4 9 9 11 4 4 7 7 4 6 4 10 13 16 2 12 17 14 16 14 17
8 9 12 15 17 18 18 16 13 14 5 5 4 4 4 1 4 6 7 7 5 5 2 7 8 7 9 4 8 8 4 6 7 6 8 5 4 6 5 10 10 11 8 12 11 11 7
8 8 9 12 15 17 17 17 13 12 11 4 7 7 4 6 7 7 6 5 8 5 8 0 2 7 4 2 2 2 6 9 10 10 10 7 7 5 6 11 2 8 5 3 7 13 14
10 9 9 10 11 14 16 16 14 9 8 6 6 6 4 5 9 9 9 7 6 2 5 6 2 5 4 2 4 7 6 7 9 13 11 6 8 4 3 6 14 15 1 3 4 7 11
12 10 11 11 11 12 13 16 15 11 8 3 4 5 6 4 4 8 9 7 7 7 6 2 4 3 2 3 3 1 4 7 5 5 0 6 7 6 4 4 4 5 6 2 1 5 5
14 12 12 11 10 11 12 12 14 14 10 7 3 6 4 4 8 8 3 6 3 6 4 5 5 3 4 3 2 3 6 8 5 7 7 5 6 11 8 5 8 13 5 5 2 2 1
16 14 13 13 11 10 10 12 11 11 12 9 4 4 2 2 9 10 5 6 6 4 5 5 4 5 5 4 3 4 4 5 7 10 5 10 5 5 6 5 8 8 9 6 4 5 8
19 16 14 14 14 11 10 11 11 9 9 7 4 2 3 6 6 13 13 12 9 7 5 7 6 3 5 4 3 3 3 3 6 5 10 10 8 4 8 6 8 7 8 9 11 12 12

GFSGBSN_925_spd_384.txt.gz
Wind_Speed
13 13 13 12 12 11 11 11 11 11 11 12 13 12 12 12 14 14 11 10 11 16 23 19 8 7 11 9 3 17 23 19 27 21 19 11 11 6 8 6 12 8 5 7 8 10 7
12 12 11 11 11 11 10 10 10 10 11 13 14 12 11 11 11 12 11 10 10 12 14 18 19 10 8 16 13 12 18 24 21 29 26 16 9 15 8 4 6 4 8 5 6 4 3
12 11 11 10 10 9 8 9 9 10 11 13 13 12 11 11 10 11 10 10 9 10 13 15 13 8 13 4 11 10 16 18 24 26 12 10 9 8 5 10 3 7 7 5 2 0 2
11 11 11 10 9 8 8 8 8 9 11 13 13 11 10 11 11 11 12 12 9 5 4 6 5 12 5 9 8 8 11 13 16 20 22 14 18 9 6 6 5 5 4 3 4 5 2
11 10 10 9 8 7 7 7 7 8 10 11 12 10 9 9 10 13 15 12 9 2 2 6 3 6 4 10 6 10 10 7 5 12 15 23 17 6 6 5 5 2 2 3 2 9 4
9 9 9 9 8 7 6 6 6 6 8 10 12 11 9 8 15 17 10 2 16 12 5 6 4 6 5 4 4 11 15 8 1 4 6 8 6 5 4 5 1 2 4 3 4 5 5
10 8 7 8 8 8 7 6 5 5 7 9 10 11 8 10 13 19 12 3 8 8 15 6 2 5 1 2 6 14 17 5 4 8 4 6 8 4 4 1 2 4 5 2 2 5 3
11 9 7 6 7 7 7 6 5 4 6 7 9 10 9 9 10 14 20 8 2 3 4 6 5 4 8 2 6 15 15 7 7 5 2 7 5 1 2 6 7 7 4 3 4 4 3
15 11 8 7 6 6 6 6 7 5 5 6 8 9 10 9 5 9 19 11 10 4 4 2 0 1 3 7 3 7 5 2 5 6 7 6 1 5 1 5 5 2 3 2 3 4 4
18 16 11 9 7 5 5 5 7 7 6 5 7 8 11 10 2 7 5 14 11 6 5 3 2 2 1 5 6 4 5 2 5 4 4 4 3 3 5 4 2 2 5 1 4 4 2
17 19 16 12 10 8 6 4 5 7 7 7 7 7 7 10 4 4 10 14 11 2 4 1 1 1 3 4 2 5 3 5 3 3 4 2 3 5 4 1 0 4 6 4 1 3 3
16 17 18 16 13 10 8 5 4 6 7 7 7 7 5 4 5 4 13 12 2 6 1 1 1 2 2 1 1 1 4 6 2 2 5 1 2 2 2 4 4 4 1 4 4 2 3
15 16 17 17 15 12 10 8 5 4 7 6 6 6 5 6 6 13 13 3 5 6 2 3 4 3 5 3 0 2 4 6 3 3 3 3 1 3 1 3 5 8 5 3 3 4 5
15 15 16 17 17 16 12 9 7 5 5 6 5 5 3 4 9 11 5 5 7 2 2 3 3 0 3 2 1 2 4 2 4 3 2 1 5 1 3 2 2 2 3 4 3 2 5
16 16 15 16 17 17 15 11 8 7 6 6 4 3 3 5 8 7 5 5 6 2 3 1 2 2 2 1 3 1 3 3 0 3 3 2 3 0 1 1 2 2 3 4 3 1 2
19 17 16 16 16 17 17 14 10 8 7 6 4 4 2 6 6 4 5 4 2 2 3 5 2 4 5 4 3 4 2 2 2 1 3 1 3 4 1 2 1 1 3 2 3 1 4
21 21 18 17 16 17 18 17 12 9 8 6 3 3 2 3 2 5 3 5 2 2 5 4 2 4 3 2 5 2 2 2 1 1 4 2 3 4 2 4 5 1 0 2 3 4 3
21 22 22 20 18 16 17 18 16 11 8 5 2 2 3 2 4 1 1 2 2 1 3 2 0 1 2 4 2 3 4 2 0 2 2 2 3 4 6 2 1 4 5 5 4 3 2
19 21 22 23 21 19 16 16 17 13 10 5 1 2 2 2 3 2 5 1 1 2 2 1 2 2 2 2 2 2 3 2 2 3 6 3 1 3 7 5 4 2 4 4 4 3 4
17 19 21 23 24 20 18 15 16 14 8 3 2 2 4 5 1 2 1 3 2 1 2 3 2 3 4 2 2 3 3 3 2 2 5 5 3 6 6 6 2 5 4 6 6 4 4
15 17 20 22 24 24 20 17 15 15 9 3 2 2 3 2 3 2 0 2 0 2 2 1 1 4 4 2 4 2 2 2 2 3 2 4 3 3 6 11 7 9 13 9 9 8 8
15 15 17 19 22 24 26 22 17 16 7 3 2 2 4 1 3 1 2 2 2 2 6 4 3 3 3 5 4 3 6 5 6 2 5 0 3 3 5 7 5 9 13 10 11 7 13
14 15 15 17 19 22 24 25 20 19 7 5 5 4 4 3 2 3 3 5 4 1 1 3 7 3 2 4 3 3 2 4 7 9 7 6 3 1 5 6 9 8 6 5 4 4 7
13 14 15 15 17 19 21 23 22 18 16 4 6 2 3 4 1 3 4 4 8 5 5 2 3 4 3 2 2 1 4 5 7 6 5 6 4 3 4 6 4 7 11 8 9 10 9
13 14 15 15 15 16 18 21 22 18 12 5 6 4 2 3 3 4 5 2 3 2 3 5 0 2 2 4 4 5 5 6 4 6 7 4 4 1 1 1 8 10 4 3 1 7 3
13 13 14 14 14 14 15 16 19 20 12 3 5 5 3 3 4 4 3 2 2 2 2 2 3 4 5 3 3 3 4 4 3 2 5 5 4 4 2 1 5 6 3 2 3 4 4
14 14 14 13 14 13 13 14 15 17 18 12 1 6 0 2 4 2 2 3 0 2 2 2 2 1 4 2 2 3 4 3 3 6 5 3 1 5 3 3 9 11 10 2 2 6 3
16 15 15 14 13 14 13 12 13 15 16 15 2 3 4 1 5 3 2 1 3 2 4 3 4 3 3 2 3 4 3 4 1 4 6 8 6 4 3 3 8 7 3 4 7 4 5
18 18 17 16 15 13 13 12 11 12 13 13 4 1 6 4 6 9 19 19 13 8 4 2 3 5 5 3 1 2 2 2 4 3 1 2 8 6 10 8 7 5 7 8 6 7 7